Dades meteomassalio
Diari Summary for Juny 23, 2017 Units:  Metric    English   Both
« Previous Day
Next Day »
Diari Semanal Mensual Anual Personalitzat
  Maxima: Minima: Mijana:
Temperatura: -17.8 °C -6.6 °C -1.7 °C
Rosada: -17.8 °C -10.8 °C -8.8 °C
Humitat: Humidity % 27 % 47 %
Velocitat del vent: 0 km/h 0 km/h 7.4 km/h
Racha vent: 0 km/h - -
Vent:- - SSE
Pressio: 0 hPa 34347.6 hPa -
Pluja: 0 mm    
Historical Graphs
 
 
Tabular Data for Juny 23, 2017
Time Temperature Dew Point Pressure Wind Wind Speed Wind Gust Humidity Rainfall Rate (Hourly) solar Conditions
-17.8 °C -17.8 °C 0 hPa Calm     Humidity % 0 mm SolarRadiationWatts/m^2 W/m2 Conditions
00:00 -2.9 °C -9.6 °C 34395 hPa East 6 km/h 6 km/h 48 % 0 mm 0.0 W/m2 CLR
00:05 -2.9 °C -9.6 °C 34395 hPa Calm     48 % 0 mm 0.0 W/m2 CLR
00:10 -3 °C -9.6 °C 34405.1 hPa Calm     48 % 0 mm 0.0 W/m2 CLR
00:15 -3 °C -9.5 °C 34405.1 hPa Calm     49 % 0 mm 0.0 W/m2 CLR
00:20 -3.1 °C -9.5 °C 34405.1 hPa Calm     49 % 0 mm 0.0 W/m2 CLR
00:25 -3.1 °C -9.4 °C 34418.7 hPa Calm     50 % 0 mm 0.0 W/m2 CLR
00:30 -3.2 °C -9.4 °C 34418.7 hPa Calm     50 % 0 mm 0.0 W/m2 CLR
00:35 -3.3 °C -9.6 °C 34418.7 hPa Calm     50 % 0 mm 0.0 W/m2 CLR
00:40 -3.3 °C -9.6 °C 34418.7 hPa Calm     50 % 0 mm 0.0 W/m2 CLR
00:45 -3.4 °C -9.6 °C 34418.7 hPa Calm     50 % 0 mm 0.0 W/m2 CLR
00:50 -3.4 °C -9.5 °C 34418.7 hPa Calm     51 % 0 mm 0.0 W/m2 CLR
00:55 -3.6 °C -9.4 °C 34418.7 hPa Calm     52 % 0 mm 0.0 W/m2 CLR
01:00 -3.7 °C -9.6 °C 34418.7 hPa Calm     52 % 0 mm 0.0 W/m2 CLR
01:05 -3.7 °C -9.6 °C 34418.7 hPa Calm     52 % 0 mm 0.0 W/m2 CLR
01:10 -3.7 °C -9.6 °C 34418.7 hPa Calm     52 % 0 mm 0.0 W/m2 CLR
01:15 -3.7 °C -9.6 °C 34418.7 hPa Calm     52 % 0 mm 0.0 W/m2 CLR
01:21 -3.7 °C -9.8 °C 34418.7 hPa ENE 6 km/h   51 % 0 mm 0.0 W/m2 CLR
01:26 -3.7 °C -9.7 °C 34405.1 hPa ENE 6 km/h   51 % 0 mm 0.0 W/m2 CLR
01:31 -3.6 °C -9.8 °C 34418.7 hPa Calm     50 % 0 mm 0.0 W/m2 CLR
01:36 -3.6 °C -9.8 °C 34418.7 hPa Calm     50 % 0 mm 0.0 W/m2 CLR
01:41 -3.6 °C -9.8 °C 34418.7 hPa Calm     50 % 0 mm 0.0 W/m2 CLR
01:46 -3.6 °C -9.7 °C 34418.7 hPa Calm     51 % 0 mm 0.0 W/m2 CLR
01:51 -3.7 °C -9.8 °C 34418.7 hPa Calm     51 % 0 mm 0.0 W/m2 CLR
01:56 -3.8 °C -9.7 °C 34418.7 hPa Calm     52 % 0 mm 0.0 W/m2 CLR
02:01 -4 °C -9.7 °C 34418.7 hPa Calm     53 % 0 mm 0.0 W/m2 CLR
02:06 -4.1 °C -9.8 °C 34405.1 hPa Calm     53 % 0 mm 0.0 W/m2 CLR
02:11 -4.1 °C -9.8 °C 34418.7 hPa Calm     53 % 0 mm 0.0 W/m2 CLR
02:16 -4.2 °C -9.7 °C 34418.7 hPa Calm     54 % 0 mm 0.0 W/m2 CLR
02:21 -4.3 °C -9.8 °C 34405.1 hPa Calm     54 % 0 mm 0.0 W/m2 CLR
02:26 -4.4 °C -9.6 °C 34405.1 hPa Calm     56 % 0 mm 0.0 W/m2 CLR
02:31 -4.5 °C -9.7 °C 34405.1 hPa Calm     56 % 0 mm 0.0 W/m2 CLR
02:36 -4.6 °C -9.6 °C 34418.7 hPa Calm     57 % 0 mm 0.0 W/m2 CLR
02:41 -4.6 °C -9.8 °C 34418.7 hPa Calm     56 % 0 mm 0.0 W/m2 CLR
02:46 -4.6 °C -9.6 °C 34418.7 hPa Calm     57 % 0 mm 0.0 W/m2 CLR
02:51 -4.7 °C -9.7 °C 34418.7 hPa Calm     57 % 0 mm 0.0 W/m2 CLR
02:56 -4.8 °C -9.8 °C 34418.7 hPa Calm     57 % 0 mm 0.0 W/m2 CLR
03:01 -4.8 °C -9.8 °C 34405.1 hPa Calm     57 % 0 mm 0.0 W/m2 CLR
03:06 -4.8 °C -9.7 °C 34405.1 hPa Calm     58 % 0 mm 0.0 W/m2 CLR
03:11 -4.9 °C -9.9 °C 34405.1 hPa Calm     57 % 0 mm 0.0 W/m2 CLR
03:16 -4.9 °C -10.1 °C 34405.1 hPa Calm     56 % 0 mm 0.0 W/m2 CLR
03:21 -4.9 °C -10.1 °C 34405.1 hPa Calm     56 % 0 mm 0.0 W/m2 CLR
03:26 -4.9 °C -9.9 °C 34405.1 hPa Calm     57 % 0 mm 0.0 W/m2 CLR
03:31 -5 °C -10 °C 34405.1 hPa Calm     57 % 0 mm 0.0 W/m2 CLR
03:36 -5.1 °C -10.1 °C 34405.1 hPa Calm     57 % 0 mm 0.0 W/m2 CLR
03:41 -5.2 °C -10.2 °C 34405.1 hPa Calm     57 % 0 mm 0.0 W/m2 CLR
03:46 -5.2 °C -10.1 °C 34405.1 hPa Calm     58 % 0 mm 0.0 W/m2 CLR
03:51 -5.3 °C -10.1 °C 34405.1 hPa Calm     58 % 0 mm 0.0 W/m2 CLR
03:56 -5.4 °C -10.4 °C 34405.1 hPa Calm     57 % 0 mm 0.0 W/m2 CLR
04:01 -5.4 °C -10.1 °C 34405.1 hPa Calm     59 % 0 mm 0.0 W/m2 CLR
04:06 -5.5 °C -10.2 °C 34405.1 hPa Calm     59 % 0 mm 0.0 W/m2 CLR
04:11 -5.6 °C -10.2 °C 34405.1 hPa Calm     59 % 0 mm 0.0 W/m2 CLR
04:16 -5.6 °C -10.1 °C 34405.1 hPa Calm     60 % 0 mm 0.0 W/m2 CLR
04:21 -5.7 °C -10.2 °C 34405.1 hPa Calm     60 % 0 mm 0.0 W/m2 CLR
04:26 -5.7 °C -10.2 °C 34405.1 hPa Calm     60 % 0 mm 0.0 W/m2 CLR
04:31 -5.8 °C -10.3 °C 34405.1 hPa Calm     60 % 0 mm 0.0 W/m2 CLR
04:36 -5.9 °C -10.2 °C 34405.1 hPa Calm     61 % 0 mm 0.0 W/m2 CLR
04:41 -6 °C -10.3 °C 34405.1 hPa Calm     61 % 0 mm 0.0 W/m2 CLR
04:46 -6.1 °C -10.2 °C 34405.1 hPa Calm     62 % 0 mm 0.0 W/m2 CLR
04:51 -6.1 °C -10.3 °C 34405.1 hPa Calm     62 % 0 mm 0.0 W/m2 CLR
04:56 -6.1 °C -10.3 °C 34405.1 hPa Calm     62 % 0 mm 0.0 W/m2 CLR
05:01 -6.2 °C -10.4 °C 34405.1 hPa Calm     62 % 0 mm 0.0 W/m2 CLR
05:06 -6.3 °C -10.5 °C 34405.1 hPa Calm     62 % 0 mm 0.0 W/m2 CLR
05:11 -6.3 °C -10.4 °C 34405.1 hPa Calm     63 % 0 mm 0.0 W/m2 CLR
05:16 -6.3 °C -10.2 °C 34418.7 hPa Calm     64 % 0 mm 0.0 W/m2 CLR
05:21 -6.3 °C -10.2 °C 34418.7 hPa Calm     64 % 0 mm 0.0 W/m2 CLR
05:26 -6.3 °C -10.4 °C 34418.7 hPa Calm     63 % 0 mm 0.0 W/m2 CLR
05:31 -6.4 °C -10.3 °C 34418.7 hPa Calm     64 % 0 mm 0.0 W/m2 CLR
05:36 -6.4 °C -10.3 °C 34418.7 hPa Calm     64 % 0 mm 0.0 W/m2 CLR
05:41 -6.4 °C -10.3 °C 34418.7 hPa Calm     64 % 0 mm 0.0 W/m2 CLR
05:46 -6.5 °C -10.4 °C 34418.7 hPa Calm     64 % 0 mm 0.0 W/m2 CLR
05:51 -6.5 °C -10.4 °C 34428.8 hPa Calm     64 % 0 mm 0.0 W/m2 CLR
05:56 -6.6 °C -10.4 °C 34428.8 hPa Calm     64 % 0 mm 0.0 W/m2 CLR
06:01 -6.6 °C -10.5 °C 34428.8 hPa Calm     64 % 0 mm 0.0 W/m2 CLR
06:06 -6.6 °C -10.5 °C 34428.8 hPa Calm     64 % 0 mm 0.0 W/m2 CLR
06:11 -6.6 °C -10.5 °C 34428.8 hPa Calm     64 % 0 mm 0.0 W/m2 CLR
06:16 -6.6 °C -10.6 °C 34442.4 hPa Calm     63 % 0 mm 0.0 W/m2 CLR
06:21 -6.6 °C -10.6 °C 34442.4 hPa Calm     63 % 0 mm 0.0 W/m2 OVC
06:26 -6.6 °C -10.7 °C 34442.4 hPa Calm     62 % 0 mm 0.0 W/m2 OVC
06:31 -6.6 °C -10.7 °C 34442.4 hPa Calm     62 % 0 mm 0.0 W/m2 OVC
06:36 -6.6 °C -10.6 °C 34442.4 hPa Calm     63 % 0 mm 7.0 W/m2 BKN
06:41 -6.6 °C -10.7 °C 34442.4 hPa SW 5.1 km/h 5.1 km/h 62 % 0 mm 11.0 W/m2 BKN
06:46 -6.5 °C -10.8 °C 34452.6 hPa Calm     61 % 0 mm 16.0 W/m2 BKN
06:51 -6.5 °C -10.7 °C 34452.6 hPa Calm     62 % 0 mm 19.0 W/m2 BKN
06:56 -6.5 °C -10.7 °C 34452.6 hPa Calm   0.5 km/h 62 % 0 mm 25.0 W/m2 BKN
07:01 -6.4 °C -10.6 °C 34452.6 hPa Calm     62 % 0 mm 30.0 W/m2 BKN
07:06 -6.1 °C -10.2 °C 34452.6 hPa SW 15.6 km/h 15.6 km/h 62 % 0 mm 37.0 W/m2 BKN
07:11 -5.7 °C -10.2 °C 34452.6 hPa West 15.6 km/h 15.6 km/h 60 % 0 mm 44.0 W/m2 BKN
07:16 -5.3 °C -9.7 °C 34452.6 hPa WSW 10.3 km/h 10.3 km/h 61 % 0 mm 56.0 W/m2 SCT
07:21 -5.2 °C -10.2 °C 34462.7 hPa Calm     57 % 0 mm 70.0 W/m2 FEW
07:29 -5.3 °C -9.9 °C 34462.7 hPa WSW 15.6 km/h 15.6 km/h 59 % 0 mm 88.0 W/m2 CLR
07:34 -5.1 °C -9.2 °C 34476.3 hPa SW 20.9 km/h 20.9 km/h 63 % 0 mm 102.0 W/m2 CLR
07:39 -4.9 °C -9.2 °C 34462.7 hPa Calm   0.8 km/h 62 % 0 mm 118.0 W/m2 CLR
07:44 -4.8 °C -9.1 °C 34476.3 hPa WSW 11.9 km/h 11.9 km/h 62 % 0 mm 137.0 W/m2 CLR
07:49 -4.6 °C -9.1 °C 34476.3 hPa WSW 9 km/h 9 km/h 61 % 0 mm 149.0 W/m2 CLR
07:54 -4.6 °C -9 °C 34476.3 hPa West 6 km/h 6 km/h 61 % 0 mm 167.0 W/m2 CLR
07:59 -4.4 °C -9 °C 34476.3 hPa WSW 11.9 km/h 11.9 km/h 60 % 0 mm 178.0 W/m2 CLR
08:04 -4.4 °C -9 °C 34486.4 hPa West 12.9 km/h 14.5 km/h 60 % 0 mm 149.0 W/m2 CLR
08:09 -4.3 °C -8.9 °C 34486.4 hPa WSW 17.9 km/h 17.9 km/h 60 % 0 mm 169.0 W/m2 CLR
08:14 -4.3 °C -9 °C 34486.4 hPa WSW 9 km/h 9 km/h 59 % 0 mm 149.0 W/m2 CLR
08:19 -4.2 °C -9 °C 34486.4 hPa WSW 11.9 km/h 11.9 km/h 59 % 0 mm 146.0 W/m2 CLR
08:24 -4.2 °C -9 °C 34486.4 hPa West 15.6 km/h 15.6 km/h 59 % 0 mm 151.0 W/m2 CLR
08:29 -4.2 °C -8.9 °C 34486.4 hPa West 11.9 km/h 11.9 km/h 59 % 0 mm 169.0 W/m2 CLR
08:34 -4.1 °C -8.9 °C 34486.4 hPa WSW 11.9 km/h 11.9 km/h 58 % 0 mm 281.0 W/m2 CLR
08:39 -3.9 °C -9 °C 34496.6 hPa West 20.9 km/h 20.9 km/h 57 % 0 mm 258.0 W/m2 CLR
08:44 -3.8 °C -8.8 °C 34486.4 hPa WSW 15 km/h 15 km/h 57 % 0 mm 309.0 W/m2 CLR
08:49 -3.7 °C -8.9 °C 34496.6 hPa West 20.9 km/h 20.9 km/h 56 % 0 mm 281.0 W/m2 CLR
08:54 -3.7 °C -9.1 °C 34496.6 hPa West 18.2 km/h 18.2 km/h 55 % 0 mm 341.0 W/m2 CLR
08:59 -3.7 °C -9.1 °C 34496.6 hPa WSW 20.9 km/h 20.9 km/h 55 % 0 mm 348.0 W/m2 CLR
09:04 -3.7 °C -9.1 °C 34496.6 hPa WNW 20.9 km/h 20.9 km/h 55 % 0 mm 355.0 W/m2 CLR
09:09 -3.6 °C -9 °C 34496.6 hPa West 9 km/h 9 km/h 55 % 0 mm 383.0 W/m2 CLR
09:14 -3.4 °C -9 °C 34496.6 hPa WNW 23.8 km/h 23.8 km/h 54 % 0 mm 397.0 W/m2 CLR
09:19 -3.3 °C -9.1 °C 34496.6 hPa WNW 26.9 km/h 26.9 km/h 53 % 0 mm 417.0 W/m2 CLR
09:24 -3.2 °C -9.1 °C 34496.6 hPa West 29.8 km/h 29.8 km/h 52 % 0 mm 436.0 W/m2 CLR
09:29 -3.2 °C -8.9 °C 34496.6 hPa NNW 20.9 km/h 20.9 km/h 53 % 0 mm 439.0 W/m2 CLR
09:34 -3.1 °C -9.1 °C 34496.6 hPa NNW 23.8 km/h 23.8 km/h 52 % 0 mm 202.0 W/m2 CLR
09:39 -3.3 °C -9.2 °C 34496.6 hPa WNW 23.8 km/h 23.8 km/h 52 % 0 mm 360.0 W/m2 CLR
09:44 -3.3 °C -9.1 °C 34496.6 hPa NW 23.8 km/h 23.8 km/h 53 % 0 mm 251.0 W/m2 CLR
09:49 -3.2 °C -8.9 °C 34496.6 hPa WNW 17.9 km/h 17.9 km/h 53 % 0 mm 501.0 W/m2 CLR
09:54 -3 °C -8.9 °C 34510.1 hPa West 15 km/h 15 km/h 52 % 0 mm 506.0 W/m2 CLR
09:59 -2.9 °C -8.8 °C 34510.1 hPa Calm     52 % 0 mm 512.0 W/m2 CLR
10:04 -2.7 °C -8.8 °C 34510.1 hPa North 9 km/h   51 % 0 mm 519.0 W/m2 CLR
10:09 -2.4 °C -8.8 °C 34496.6 hPa Calm     50 % 0 mm 552.0 W/m2 CLR
10:14 -2.3 °C -9 °C 34496.6 hPa Calm     48 % 0 mm 577.0 W/m2 CLR
10:19 -2.2 °C -8.9 °C 34496.6 hPa Calm     48 % 0 mm 587.0 W/m2 CLR
10:24 -2 °C -8.7 °C 34496.6 hPa Calm     48 % 0 mm 526.0 W/m2 CLR
10:29 -1.8 °C -8.7 °C 34496.6 hPa Calm     47 % 0 mm 703.0 W/m2 CLR
10:34 -1.7 °C -8.8 °C 34496.6 hPa Calm     46 % 0 mm 691.0 W/m2 CLR
10:39 -1.7 °C -8.8 °C 34496.6 hPa Calm     46 % 0 mm 425.0 W/m2 CLR
10:44 -1.7 °C -8.8 °C 34496.6 hPa NW 11.9 km/h 11.9 km/h 46 % 0 mm 603.0 W/m2 CLR
10:49 -1.6 °C -8.7 °C 34496.6 hPa Calm     46 % 0 mm 738.0 W/m2 CLR
10:54 -1.6 °C -8.9 °C 34496.6 hPa WNW 20.8 km/h 20.8 km/h 45 % 0 mm 267.0 W/m2 CLR
10:59 -1.7 °C -8.8 °C 34496.6 hPa West 10.3 km/h 10.3 km/h 46 % 0 mm 255.0 W/m2 CLR
11:04 -1.8 °C -8.9 °C 34496.6 hPa WNW 17.9 km/h 17.9 km/h 46 % 0 mm 260.0 W/m2 CLR
11:09 -1.9 °C -8.8 °C 34496.6 hPa NNW 3.1 km/h   47 % 0 mm 246.0 W/m2 CLR
11:14 -1.9 °C -9 °C 34496.6 hPa Calm     46 % 0 mm 258.0 W/m2 CLR
11:19 -1.7 °C -8.4 °C 34496.6 hPa Calm     48 % 0 mm 807.0 W/m2 CLR
11:24 -1.6 °C -8.7 °C 34496.6 hPa West 17.9 km/h 17.9 km/h 46 % 0 mm 810.0 W/m2 CLR
11:29 -1.5 °C -8.8 °C 34496.6 hPa Calm     45 % 0 mm 826.0 W/m2 CLR
11:34 -1.3 °C -8.8 °C 34496.6 hPa Calm     44 % 0 mm 844.0 W/m2 CLR
11:39 -1.1 °C -8.4 °C 34496.6 hPa Calm     45 % 0 mm 847.0 W/m2 CLR
11:40 -1.1 °C -8.4 °C 34496.6 hPa North 10.3 km/h 10.3 km/h 45 % 0 mm 847.0 W/m2 CLR
11:45 -0.8 °C -8.6 °C 34496.6 hPa Calm     43 % 0 mm 278.0 W/m2 CLR
11:50 -1 °C -8.7 °C 34496.6 hPa Calm     43 % 0 mm 304.0 W/m2 CLR
11:55 -1 °C -8.6 °C 34496.6 hPa Calm     44 % 0 mm 304.0 W/m2 CLR
12:00 -0.9 °C -8.7 °C 34496.6 hPa SW 7.7 km/h 7.7 km/h 43 % 0 mm 830.0 W/m2 CLR
12:05 -0.8 °C -8.4 °C 34496.6 hPa Calm     44 % 0 mm 895.0 W/m2 CLR
12:10 -0.6 °C -8.6 °C 34496.6 hPa Calm     42 % 0 mm 916.0 W/m2 CLR
12:15 -0.5 °C -8.6 °C 34496.6 hPa Calm     42 % 0 mm 916.0 W/m2 CLR
12:20 -0.5 °C -8.5 °C 34486.4 hPa Calm     42 % 0 mm 638.0 W/m2 CLR
12:25 -0.4 °C -8.4 °C 34486.4 hPa NE 3.1 km/h 3.1 km/h 42 % 0 mm 840.0 W/m2 CLR
12:30 -0.1 °C -8.4 °C 34486.4 hPa ENE 17.9 km/h 17.9 km/h 41 % 0 mm 796.0 W/m2 CLR
12:35 -0.1 °C -8.4 °C 34486.4 hPa Calm     41 % 0 mm 512.0 W/m2 CLR
12:40 -0.1 °C -8.3 °C 34486.4 hPa SE 3.1 km/h   41 % 0 mm 916.0 W/m2 CLR
12:45 0.1 °C -8.4 °C 34486.4 hPa East 2.6 km/h 2.6 km/h 40 % 0 mm 909.0 W/m2 CLR
12:50 0.1 °C -8.4 °C 34486.4 hPa Calm     40 % 0 mm 902.0 W/m2 CLR
12:55 0.3 °C -7.9 °C 34476.3 hPa NE 10.3 km/h 10.3 km/h 41 % 0 mm 884.0 W/m2 CLR
13:00 0.4 °C -8.2 °C 34476.3 hPa NE 15 km/h 15 km/h 40 % 0 mm 881.0 W/m2 CLR
13:05 0.3 °C -8.2 °C 34476.3 hPa ESE 15 km/h 15 km/h 40 % 0 mm 872.0 W/m2 CLR
13:15 0.2 °C -8.1 °C 34476.3 hPa South 12.9 km/h 12.9 km/h 41 % 0 mm 879.0 W/m2 CLR
13:20 0.2 °C -8.3 °C 34476.3 hPa ENE 17.9 km/h 17.9 km/h 40 % 0 mm 877.0 W/m2 CLR
13:25 0.3 °C -8 °C 34476.3 hPa ESE 3.1 km/h 3.1 km/h 41 % 0 mm 886.0 W/m2 CLR
13:30 0.4 °C -8.1 °C 34476.3 hPa East 9 km/h 9 km/h 40 % 0 mm 889.0 W/m2 CLR
13:31 0.4 °C -8.1 °C 34476.3 hPa East 9 km/h 9 km/h 40 % 0 mm 889.0 W/m2 CLR
13:36 0.6 °C -8.2 °C 34476.3 hPa ENE 23.8 km/h 23.8 km/h 39 % 0 mm 893.0 W/m2 CLR
13:41 0.6 °C -8.2 °C 34462.7 hPa ENE 9 km/h 9 km/h 39 % 0 mm 896.0 W/m2 CLR
13:46 0.7 °C -8.3 °C 34462.7 hPa East 10.3 km/h 10.3 km/h 38 % 0 mm 893.0 W/m2 CLR
13:51 0.7 °C -8.1 °C 34462.7 hPa ENE 20.9 km/h 20.9 km/h 39 % 0 mm 893.0 W/m2 CLR
13:56 0.8 °C -8.2 °C 34462.7 hPa Calm     38 % 0 mm 895.0 W/m2 CLR
14:01 0.9 °C -8.2 °C 34462.7 hPa NNE 15 km/h 15 km/h 38 % 0 mm 898.0 W/m2 CLR
14:06 1 °C -8.1 °C 34462.7 hPa North 11.9 km/h 11.9 km/h 38 % 0 mm 898.0 W/m2 CLR
14:11 1.1 °C -8 °C 34452.6 hPa East 2.6 km/h   38 % 0 mm 898.0 W/m2 CLR
14:16 1.2 °C -8.2 °C 34452.6 hPa Calm     37 % 0 mm 902.0 W/m2 CLR
14:21 1.2 °C -8.2 °C 34452.6 hPa South 3.1 km/h 3.1 km/h 37 % 0 mm 896.0 W/m2 CLR
14:26 1.2 °C -8.4 °C 34452.6 hPa South 6 km/h 6 km/h 36 % 0 mm 900.0 W/m2 CLR
14:31 1.2 °C -8.4 °C 34442.4 hPa SSW 3.1 km/h   36 % 0 mm 896.0 W/m2 CLR
14:36 1.3 °C -8.8 °C 34442.4 hPa Calm     34 % 0 mm 891.0 W/m2 CLR
14:41 1.5 °C -8.6 °C 34442.4 hPa Calm     34 % 0 mm 893.0 W/m2 CLR
14:46 1.6 °C -8.7 °C 34442.4 hPa Calm     33 % 0 mm 891.0 W/m2 CLR
14:51 1.7 °C -8.4 °C 34442.4 hPa ENE 11.9 km/h 11.9 km/h 34 % 0 mm 886.0 W/m2 CLR
14:56 1.7 °C -8.4 °C 34442.4 hPa ENE 6 km/h   34 % 0 mm 882.0 W/m2 CLR
15:01 1.8 °C -8.4 °C 34428.8 hPa Calm     34 % 0 mm 877.0 W/m2 CLR
15:06 2 °C -8.4 °C 34428.8 hPa Calm     33 % 0 mm 875.0 W/m2 CLR
15:11 2.1 °C -8.6 °C 34428.8 hPa Calm     32 % 0 mm 870.0 W/m2 CLR
15:16 2.1 °C -8.6 °C 34428.8 hPa Calm     32 % 0 mm 872.0 W/m2 CLR
15:21 2.3 °C -8.7 °C 34418.7 hPa Calm     31 % 0 mm 861.0 W/m2 CLR
15:22 2.3 °C -8.7 °C 34418.7 hPa Calm     31 % 0 mm 861.0 W/m2 CLR
15:27 2.4 °C -8.6 °C 34418.7 hPa NNE 9 km/h 9 km/h 31 % 0 mm 856.0 W/m2 CLR
15:32 2.5 °C -8.5 °C 34418.7 hPa NE 17.9 km/h 17.9 km/h 31 % 0 mm 847.0 W/m2 CLR
15:37 2.6 °C -8.8 °C 34405.1 hPa NNE 9 km/h 9 km/h 30 % 0 mm 838.0 W/m2 CLR
15:42 2.6 °C -8.4 °C 34405.1 hPa North 6 km/h 6 km/h 31 % 0 mm 833.0 W/m2 CLR
15:47 2.6 °C -8.7 °C 34405.1 hPa NNE 3.1 km/h 3.1 km/h 30 % 0 mm 828.0 W/m2 CLR
15:52 2.6 °C -8.7 °C 34405.1 hPa Calm     30 % 0 mm 819.0 W/m2 CLR
15:57 2.6 °C -8.8 °C 34405.1 hPa Calm     30 % 0 mm 814.0 W/m2 CLR
16:02 2.6 °C -8.5 °C 34405.1 hPa SSE 9 km/h 9 km/h 31 % 0 mm 803.0 W/m2 CLR
16:07 2.6 °C -8.5 °C 34405.1 hPa Calm     31 % 0 mm 795.0 W/m2 CLR
16:12 2.9 °C -8.8 °C 34405.1 hPa North 9 km/h 9 km/h 29 % 0 mm 786.0 W/m2 CLR
16:17 2.9 °C -8.8 °C 34395 hPa Calm     29 % 0 mm 772.0 W/m2 CLR
16:22 3.1 °C -8.7 °C 34395 hPa Calm     29 % 0 mm 766.0 W/m2 CLR
16:27 3 °C -8.7 °C 34395 hPa ENE 11.9 km/h 11.9 km/h 29 % 0 mm 761.0 W/m2 CLR
16:32 3 °C -8.7 °C 34395 hPa NNE 9 km/h 9 km/h 29 % 0 mm 752.0 W/m2 CLR
16:37 2.9 °C -8.7 °C 34395 hPa NNW 7.7 km/h 7.7 km/h 29 % 0 mm 737.0 W/m2 CLR
16:42 2.9 °C -8.7 °C 34395 hPa NE 6 km/h 6 km/h 29 % 0 mm 731.0 W/m2 CLR
16:47 3.1 °C -8.6 °C 34384.8 hPa ENE 11.9 km/h 11.9 km/h 29 % 0 mm 717.0 W/m2 CLR
16:52 3.1 °C -8.9 °C 34384.8 hPa ENE 9 km/h 9 km/h 28 % 0 mm 700.0 W/m2 CLR
16:57 3 °C -9 °C 34384.8 hPa NE 11.9 km/h 11.9 km/h 28 % 0 mm 689.0 W/m2 CLR
17:02 2.9 °C -9.1 °C 34384.8 hPa NNE 6 km/h 6 km/h 28 % 0 mm 684.0 W/m2 CLR
17:07 3 °C -9 °C 34371.3 hPa Calm     28 % 0 mm 671.0 W/m2 CLR
17:12 3.2 °C -9.2 °C 34371.3 hPa NNE 9 km/h 9 km/h 27 % 0 mm 661.0 W/m2 CLR
17:17 3.3 °C -9.1 °C 34371.3 hPa ENE 12.9 km/h 12.9 km/h 27 % 0 mm 642.0 W/m2 CLR
17:22 3.3 °C -9.1 °C 34371.3 hPa North 9 km/h 9 km/h 27 % 0 mm 629.0 W/m2 CLR
17:27 3.2 °C -8.2 °C 34371.3 hPa SE 17.9 km/h 17.9 km/h 30 % 0 mm 612.0 W/m2 CLR
17:32 2.9 °C -7.9 °C 34371.3 hPa SE 20.9 km/h 20.9 km/h 32 % 0 mm 601.0 W/m2 CLR
17:37 2.7 °C -7.8 °C 34371.3 hPa ESE 23.8 km/h 23.8 km/h 33 % 0 mm 585.0 W/m2 CLR
17:42 2.7 °C -7.6 °C 34361.1 hPa ESE 23.8 km/h 23.8 km/h 34 % 0 mm 570.0 W/m2 CLR
17:47 2.7 °C -7.3 °C 34361.1 hPa ESE 15.6 km/h 15.6 km/h 35 % 0 mm 554.0 W/m2 CLR
17:52 2.6 °C -7.4 °C 34361.1 hPa East 29.8 km/h 29.8 km/h 35 % 0 mm 540.0 W/m2 CLR
17:57 2.3 °C -7.6 °C 34361.1 hPa ESE 26.9 km/h 26.9 km/h 35 % 0 mm 531.0 W/m2 CLR
18:02 2.3 °C -7.7 °C 34361.1 hPa SE 23.8 km/h 23.8 km/h 35 % 0 mm 519.0 W/m2 CLR
18:07 2.2 °C -7.7 °C 34361.1 hPa East 29.8 km/h 29.8 km/h 35 % 0 mm 501.0 W/m2 CLR
18:12 2.1 °C -7.6 °C 34361.1 hPa SE 25.9 km/h 25.9 km/h 36 % 0 mm 485.0 W/m2 CLR
18:17 2.1 °C -7.6 °C 34361.1 hPa SE 20.8 km/h 20.8 km/h 36 % 0 mm 476.0 W/m2 CLR
18:22 2.1 °C -7.6 °C 34347.6 hPa ESE 29.8 km/h 29.8 km/h 36 % 0 mm 462.0 W/m2 CLR
18:27 2.1 °C -7.8 °C 34347.6 hPa ESE 23.8 km/h 23.8 km/h 35 % 0 mm 443.0 W/m2 CLR
18:32 2 °C -7.4 °C 34347.6 hPa East 23.8 km/h 23.8 km/h 37 % 0 mm 427.0 W/m2 CLR
18:37 1.9 °C -7.7 °C 34361.1 hPa ESE 29.8 km/h 29.8 km/h 36 % 0 mm 417.0 W/m2 CLR
18:42 1.9 °C -7.5 °C 34347.6 hPa ESE 29.8 km/h 29.8 km/h 37 % 0 mm 403.0 W/m2 CLR
18:47 1.9 °C -7.4 °C 34347.6 hPa ESE 28.5 km/h 28.5 km/h 37 % 0 mm 388.0 W/m2 CLR
18:52 1.9 °C -7.7 °C 34361.1 hPa SE 23.8 km/h 23.8 km/h 36 % 0 mm 374.0 W/m2 CLR
18:57 1.8 °C -7.8 °C 34361.1 hPa SE 26.9 km/h 26.9 km/h 36 % 0 mm 362.0 W/m2 CLR
19:02 1.8 °C -7.6 °C 34361.1 hPa SE 29.8 km/h 29.8 km/h 37 % 0 mm 346.0 W/m2 CLR
19:12 1.8 °C -7.3 °C 34347.6 hPa ESE 26.9 km/h 26.9 km/h 38 % 0 mm 318.0 W/m2 CLR
19:17 1.7 °C -7.2 °C 34347.6 hPa East 23.8 km/h 23.8 km/h 39 % 0 mm 301.0 W/m2 CLR
19:22 1.7 °C -7.2 °C 34347.6 hPa SE 26.9 km/h 26.9 km/h 39 % 0 mm 288.0 W/m2 CLR
19:27 1.7 °C -7.2 °C 34347.6 hPa ESE 29.8 km/h 29.8 km/h 39 % 0 mm 285.0 W/m2 CLR
19:32 1.7 °C -7.2 °C 34347.6 hPa ESE 29.8 km/h 29.8 km/h 39 % 0 mm 281.0 W/m2 CLR
19:37 1.7 °C -7.2 °C 34347.6 hPa ESE 26.9 km/h 26.9 km/h 39 % 0 mm 278.0 W/m2 CLR
19:42 1.7 °C -7 °C 34347.6 hPa SE 11.9 km/h 11.9 km/h 40 % 0 mm 272.0 W/m2 CLR
19:43 1.7 °C -7.2 °C 34347.6 hPa ESE 9 km/h   39 % 0 mm 271.0 W/m2 CLR
19:48 1.7 °C -7 °C 34361.1 hPa ESE 15 km/h 15 km/h 40 % 0 mm 271.0 W/m2 CLR
19:53 1.7 °C -7 °C 34361.1 hPa ESE 26.9 km/h 26.9 km/h 40 % 0 mm 258.0 W/m2 CLR
19:58 1.6 °C -7.6 °C 34347.6 hPa SSE 31.1 km/h 31.1 km/h 38 % 0 mm 223.0 W/m2 CLR
20:03 1.4 °C -7.7 °C 34361.1 hPa South 29.8 km/h 29.8 km/h 38 % 0 mm 199.0 W/m2 CLR
20:08 1.4 °C -7.4 °C 34361.1 hPa SSE 15 km/h 15 km/h 39 % 0 mm 176.0 W/m2 CLR
20:13 1.4 °C -7.2 °C 34361.1 hPa SSE 29.8 km/h 29.8 km/h 40 % 0 mm 156.0 W/m2 CLR
20:18 1.3 °C -7.6 °C 34361.1 hPa South 20.9 km/h 20.9 km/h 39 % 0 mm 156.0 W/m2 CLR
20:23 1.3 °C -7.7 °C 34361.1 hPa SSE 29.8 km/h 29.8 km/h 38 % 0 mm 148.0 W/m2 CLR
20:28 1.3 °C -7.8 °C 34361.1 hPa South 15 km/h 15 km/h 38 % 0 mm 134.0 W/m2 CLR
20:33 1.3 °C -7.6 °C 34361.1 hPa South 17.9 km/h 17.9 km/h 39 % 0 mm 125.0 W/m2 CLR
20:38 1.3 °C -7.8 °C 34361.1 hPa South 20.9 km/h 20.9 km/h 38 % 0 mm 118.0 W/m2 CLR
20:43 1.3 °C -8 °C 34361.1 hPa SSE 15 km/h 15 km/h 37 % 0 mm 104.0 W/m2 CLR
20:48 1.3 °C -8.1 °C 34371.3 hPa SSE 18.2 km/h 18.2 km/h 37 % 0 mm 83.0 W/m2 FEW
20:53 1.2 °C -7.2 °C 34371.3 hPa Calm     41 % 0 mm 79.0 W/m2 FEW
20:58 1.1 °C -7.7 °C 34371.3 hPa SE 6 km/h   39 % 0 mm 72.0 W/m2 FEW
21:03 0.9 °C -6.8 °C 34371.3 hPa ESE 15.6 km/h 15.6 km/h 44 % 0 mm 60.0 W/m2 SCT
21:08 0.7 °C -7 °C 34371.3 hPa SE 9 km/h 9 km/h 44 % 0 mm 44.0 W/m2 SCT
21:13 0.6 °C -6.9 °C 34371.3 hPa Calm     45 % 0 mm 32.0 W/m2 BKN
21:18 0.4 °C -6.8 °C 34371.3 hPa Calm     46 % 0 mm 23.0 W/m2 BKN
21:23 0.3 °C -6.9 °C 34371.3 hPa SE 9 km/h 9 km/h 46 % 0 mm 16.0 W/m2 BKN
21:28 0.2 °C -6.9 °C 34371.3 hPa SE 17.9 km/h 17.9 km/h 47 % 0 mm 11.0 W/m2 BKN
21:33 0 °C -6.9 °C 34371.3 hPa SE 15 km/h 15 km/h 48 % 0 mm 5.0 W/m2 OVC
21:38 -0.2 °C -7.1 °C 34371.3 hPa Calm     48 % 0 mm 0.0 W/m2 OVC
21:43 -0.3 °C -7 °C 34371.3 hPa Calm     49 % 0 mm 0.0 W/m2 OVC
21:48 -0.4 °C -7.1 °C 34371.3 hPa Calm     49 % 0 mm 0.0 W/m2 CLR
21:53 -0.6 °C -7.1 °C 34384.8 hPa Calm     50 % 0 mm 0.0 W/m2 CLR
21:54 -0.6 °C -7.1 °C 34384.8 hPa Calm     50 % 0 mm 0.0 W/m2 CLR
21:59 -0.7 °C -6.9 °C 34384.8 hPa Calm     51 % 0 mm 0.0 W/m2 CLR
22:04 -0.8 °C -7.1 °C 34384.8 hPa Calm     51 % 0 mm 0.0 W/m2 CLR
22:09 -0.9 °C -7 °C 34384.8 hPa Calm     52 % 0 mm 0.0 W/m2 CLR
22:14 -1.1 °C -7.1 °C 34395 hPa Calm     52 % 0 mm 0.0 W/m2 CLR
22:19 -1.2 °C -7.1 °C 34395 hPa Calm     53 % 0 mm 0.0 W/m2 CLR
22:24 -1.2 °C -7.1 °C 34395 hPa ESE 11.9 km/h 11.9 km/h 53 % 0 mm 0.0 W/m2 CLR
22:29 -1.4 °C -7.1 °C 34395 hPa ESE 9 km/h 9 km/h 54 % 0 mm 0.0 W/m2 CLR
22:34 -1.5 °C -7.1 °C 34395 hPa Calm     55 % 0 mm 0.0 W/m2 CLR
22:39 -1.6 °C -7.1 °C 34405.1 hPa Calm     55 % 0 mm 0.0 W/m2 CLR
22:44 -1.7 °C -7.1 °C 34405.1 hPa East 11.9 km/h 11.9 km/h 56 % 0 mm 0.0 W/m2 CLR
22:49 -1.7 °C -7.2 °C 34405.1 hPa ESE 9 km/h 9 km/h 55 % 0 mm 0.0 W/m2 CLR
22:54 -1.7 °C -7.1 °C 34405.1 hPa Calm     56 % 0 mm 0.0 W/m2 CLR
22:59 -1.8 °C -7.1 °C 34405.1 hPa Calm     56 % 0 mm 0.0 W/m2 CLR
23:04 -1.8 °C -7.2 °C 34405.1 hPa Calm     56 % 0 mm 0.0 W/m2 CLR
23:09 -1.9 °C -7.1 °C 34405.1 hPa Calm     57 % 0 mm 0.0 W/m2 CLR
23:14 -2.1 °C -7.2 °C 34405.1 hPa Calm     57 % 0 mm 0.0 W/m2 CLR
23:19 -2 °C -7.2 °C 34405.1 hPa Calm     57 % 0 mm 0.0 W/m2 CLR
23:24 -2.1 °C -7.4 °C 34405.1 hPa Calm     56 % 0 mm 0.0 W/m2 CLR
23:29 -2.1 °C -7.4 °C 34405.1 hPa Calm     56 % 0 mm 0.0 W/m2 CLR
23:34 -2.1 °C -7.4 °C 34405.1 hPa Calm     56 % 0 mm 0.0 W/m2 CLR
23:39 -2.1 °C -7.6 °C 34405.1 hPa Calm     55 % 0 mm 0.0 W/m2 CLR
23:44 -2.1 °C -7.7 °C 34405.1 hPa Calm     54 % 0 mm 0.0 W/m2 CLR
23:49 -2.1 °C -7.6 °C 34405.1 hPa Calm     55 % 0 mm 0.0 W/m2 CLR
23:54 -2.1 °C -7.7 °C 34405.1 hPa Calm     54 % 0 mm 0.0 W/m2 CLR
23:59 -2.1 °C -7.4 °C 34405.1 hPa Calm     56 % 0 mm 0.0 W/m2 CLR
Lo Temps de Massalio
Compliments of Weather Underground - 1.25 mb